[[{"header":{"parameterUnit":"m.s-1","parameterCategory":2,"la1":30.2991,"la2":30.254,"lo1":-89.0895,"lo2":-89.0444,"dy":0.0017,"dx":0.0017,"nx":28,"ny":28,"refTime":"2024-04-25T09:00:00:Z","depth":"0","parameterNumber":2,"parameterNumberName":"U-component_of_CURRENTS"},"data":[0,0,0,0,0,0,0,0,0,0,0,0,0,0,0,0,0,0,0,0,0,0,0,0,0,0,0,0,0,0,0,0,0,0,0,0,0,0,0,0,0,0,0,0,0,0,0,0,0,0,0,0,0,0,0,0,0,0,0.2545,0.2546,0,0.2593,0.2593,0.2594,0.2589,0.2588,0.2588,0.2587,0.2626,0.2628,0.2629,0,0,0,0,0,0,0,0,0,0,0,0,0,0.2468,0.2469,0.2545,0.2546,0.2546,0.2593,0.2593,0.2594,0.2589,0.2588,0.2587,0.2587,0.2626,0.2628,0.263,0,0,0,0,0,0,0,0,0,0,0,0,0,0.2506,0.2469,0.2545,0.2551,0.2552,0.2592,0.2593,0.2594,0.2589,0.2588,0.2587,0.2586,0.2625,0.2627,0.263,0.2664,0,0,0.2637,0.2638,0,0,0,0,0,0,0,0,0.2503,0.2508,0.2549,0.255,0.2552,0.2585,0.258,0.2617,0.2589,0.2574,0.2587,0.2586,0.2613,0.2617,0.2626,0.2665,0.2667,0.2637,0.2639,0.264,0.2641,0,0,0,0,0,0,0,0.2501,0.2506,0.2563,0.255,0.2552,0.2557,0.2561,0.2587,0.2597,0.2575,0.2575,0.2583,0.2613,0.2624,0.2627,0.2668,0.2637,0.264,0.2641,0.2642,0.2742,0.2743,0,0,0,0,0,0,0.2498,0.2504,0.2561,0.2564,0.2526,0.2559,0.2564,0.2574,0.2597,0.26,0.2583,0.2582,0.262,0.2624,0.2628,0.2687,0.264,0.2642,0.2644,0.274,0.2742,0.2743,0,0,0,0,0,0,0.2496,0.2503,0.2559,0.2536,0.2543,0.2561,0.2573,0.2576,0.2584,0.2604,0.2606,0.2589,0.2619,0.2625,0.2655,0.2687,0.2643,0.2646,0.2739,0.2741,0.2742,0.2793,0,0,0,0,0,0,0.2494,0.2502,0.2507,0.2536,0.2545,0.259,0.2575,0.2577,0.2591,0.259,0.261,0.2612,0.2619,0.2652,0.2658,0.269,0.2647,0.2738,0.274,0.2742,0.279,0.2796,0.2802,0,0,0,0,0,0.2491,0.2505,0.2508,0.2514,0.2552,0.2591,0.2596,0.2604,0.2592,0.2606,0.2615,0.2612,0.267,0.2655,0.2662,0.2695,0.2736,0.2739,0.2742,0.2787,0.2795,0.2802,0,0,0,0,0,0,0.2477,0.2507,0.251,0.2533,0.2562,0.259,0.2605,0.2607,0.2626,0.2623,0.2629,0.2634,0.2676,0.2676,0.2659,0.2729,0.2702,0.2706,0.2735,0.2742,0.2748,0.2754,0.265,0,0,0,0,0,0.2477,0.2494,0.2526,0.2545,0.256,0.2581,0.2596,0.2605,0.2626,0.2633,0.2648,0.2665,0.2695,0.2708,0.2733,0.2771,0.2786,0.2796,0.2802,0.2807,0.2816,0.285,0.286,0.2752,0.2752,0.2752,0,0,0.2475,0.2496,0.2504,0.2543,0.2564,0.2599,0.2588,0.2618,0.2645,0.2636,0.2674,0.2691,0.271,0.2756,0.2774,0.2757,0.2851,0.281,0.2814,0.2821,0.2854,0.2864,0.2874,0.2754,0.2753,0.2753,0,0,0.249,0.2503,0.2525,0.2553,0.2592,0.2612,0.2621,0.2655,0.2667,0.2707,0.2711,0.2743,0.2781,0.2807,0.2822,0.2876,0.2884,0.2883,0.2918,0.2951,0.296,0.2968,0.3025,0.3038,0.2882,0.2882,0.2882,0,0.2486,0.252,0.2538,0.2574,0.2599,0.2619,0.2654,0.2679,0.2718,0.2738,0.2724,0.2797,0.2809,0.2872,0.289,0.2892,0.2916,0.2889,0.2959,0.2967,0.2975,0.3031,0.3044,0.2885,0.2885,0.2884,0.2884,0,0.2522,0.255,0.257,0.262,0.2651,0.2685,0.2724,0.2758,0.2771,0.2793,0.2851,0.2871,0.2913,0.2925,0.2925,0.2992,0.2996,0.2966,0.2941,0.2989,0.3045,0.3058,0.2889,0.2888,0.2887,0.2886,0,0,0.2502,0.2578,0.2582,0.2614,0.2675,0.2707,0.2764,0.2821,0.2857,0.2891,0.2937,0.299,0.2995,0.3013,0.3021,0.3048,0.3128,0.3031,0.3032,0.3089,0.3226,0.3262,0.328,0.3107,0.3109,0.3111,0.3253,0,0.2521,0.2593,0.2622,0.2687,0.273,0.277,0.2823,0.2877,0.2913,0.2964,0.2993,0.3039,0.303,0.3052,0.3083,0.312,0.3161,0.3094,0.317,0.3173,0.3199,0.3295,0.3159,0.3276,0.3266,0.3268,0.3269,0,0.254,0.2591,0.2649,0.2733,0.2752,0.2787,0.2873,0.292,0.2998,0.3029,0.3082,0.3101,0.3173,0.3133,0.3238,0.3197,0.3222,0.3239,0.3244,0.3267,0.3233,0.3222,0.33,0.3244,0.3289,0.3288,0.3286,0,0.2521,0.2607,0.2649,0.2675,0.2769,0.2799,0.2852,0.2935,0.2973,0.3066,0.3103,0.3185,0.3231,0.3274,0.334,0.3288,0.3449,0.3374,0.3436,0.3439,0.3335,0.3326,0.3365,0.344,0.344,0.3439,0.3439,0,0.2526,0.2561,0.264,0.2662,0.2712,0.279,0.2839,0.2911,0.2997,0.3047,0.3123,0.3186,0.3264,0.336,0.3387,0.3495,0.3499,0.348,0.3487,0.3353,0.3344,0.3297,0.3283,0.3445,0.3444,0.3442,0.3442,0,0.2483,0.2537,0.2584,0.2673,0.2696,0.2727,0.281,0.2849,0.2956,0.3026,0.3058,0.321,0.3358,0.3455,0.3564,0.3573,0.3572,0.3678,0.3541,0.3531,0.3497,0.3492,0.342,0.3309,0.3752,0.3754,0.3756,0,0.2464,0.2485,0.2555,0.2571,0.2597,0.2654,0.2684,0.2801,0.2846,0.3037,0.3064,0.3256,0.3375,0.3602,0.3679,0.3792,0.3654,0.3708,0.3572,0.3522,0.352,0.3351,0.3248,0.346,0.3459,0.3458,0.3458,0,0.242,0.2432,0.2463,0.25,0.2521,0.2553,0.2619,0.265,0.2795,0.2893,0.3055,0.3179,0.3434,0.3532,0.3722,0.3743,0.3546,0.3696,0.3654,0.333,0.3134,0.3022,0.3366,0.345,0.3451,0.3452,0.3452,0.3452,0.2365,0.2366,0.2402,0.243,0.2442,0.2459,0.2466,0.2552,0.2637,0.2786,0.2975,0.3144,0.336,0.3616,0.3633,0.3599,0.3542,0.3476,0.3489,0.3334,0.3172,0.3541,0.3626,0.3628,0.3629,0.363,0.3632,0,0.2324,0.2335,0.2345,0.2357,0.2333,0.2382,0.2419,0.2422,0.2492,0.2678,0.2842,0.3104,0.324,0.3369,0.3472,0.3405,0.3169,0.3321,0.3017,0.2935,0.3281,0.3212,0.3197,0.3197,0.3197,0.3197,0.3197,0.3198,0.2305,0.2305,0.2317,0.2265,0.2258,0.221,0.2222,0.2246,0.2342,0.2498,0.2653,0.2845,0.3133,0.3373,0.3352,0.3263,0.3008,0.2901,0.2892,0.3135,0.3146,0.3158,0.3087,0.3047,0.3047,0.2341,0.2337,0.2334]},{"header":{"parameterUnit":"m.s-1","parameterCategory":2,"la1":30.2991,"la2":30.254,"lo1":-89.0895,"lo2":-89.0444,"dy":0.0017,"dx":0.0017,"nx":28,"ny":28,"refTime":"2024-04-25T09:00:00:Z","depth":"0","parameterNumber":3,"parameterNumberName":"V-component_of_CURRENTS"},"data":[0,0,0,0,0,0,0,0,0,0,0,0,0,0,0,0,0,0,0,0,0,0,0,0,0,0,0,0,0,0,0,0,0,0,0,0,0,0,0,0,0,0,0,0,0,0,0,0,0,0,0,0,0,0,0,0,0,0,0.0038,0.0038,0,-0.0028,-0.0029,-0.003,-0.0081,-0.0081,-0.0082,-0.0082,-0.0202,-0.0205,-0.0208,0,0,0,0,0,0,0,0,0,0,0,0,0,0.007,0.007,0.0038,0.0038,0.0037,-0.0028,-0.0029,-0.003,-0.0081,-0.0081,-0.0082,-0.0082,-0.0201,-0.0205,-0.0208,0,0,0,0,0,0,0,0,0,0,0,0,0,0.0034,0.007,0.0039,0.0005,0.0001,-0.0027,-0.0029,-0.003,-0.0081,-0.0081,-0.0082,-0.0082,-0.02,-0.0204,-0.0209,-0.0224,0,0,-0.0222,-0.0224,0,0,0,0,0,0,0,0,0.0036,0.0033,0.001,0.0007,0.0003,-0.0045,-0.0062,-0.0097,-0.0081,-0.0051,-0.0082,-0.0083,-0.0154,-0.0162,-0.0174,-0.023,-0.0235,-0.0222,-0.0225,-0.0227,-0.0228,0,0,0,0,0,0,0,0.0039,0.0035,0.0011,0.001,0.0005,-0.0024,-0.003,-0.0069,-0.0101,-0.0054,-0.0057,-0.0062,-0.0156,-0.017,-0.0178,-0.0237,-0.0222,-0.0226,-0.0229,-0.023,-0.0324,-0.0324,0,0,0,0,0,0,0.0053,0.0038,0.0013,0.0009,0.002,-0.0024,-0.003,-0.0031,-0.0099,-0.0109,-0.0062,-0.0064,-0.0162,-0.0172,-0.0182,-0.0201,-0.0227,-0.0231,-0.0233,-0.0324,-0.0324,-0.0324,0,0,0,0,0,0,0.0054,0.0052,0.0016,0.0023,0.0016,-0.0024,-0.0024,-0.0032,-0.0044,-0.0104,-0.0116,-0.0066,-0.0163,-0.0176,-0.0212,-0.0207,-0.0233,-0.0236,-0.0324,-0.0324,-0.0324,-0.0242,0,0,0,0,0,0,0.0056,0.0053,0.0058,0.0024,0.0016,0.0006,-0.0023,-0.0032,-0.0046,-0.005,-0.0112,-0.0124,-0.0165,-0.0205,-0.0217,-0.0213,-0.024,-0.0324,-0.0324,-0.0324,-0.0245,-0.024,-0.0235,0,0,0,0,0,0.0057,0.0068,0.0058,0.0055,0.0025,0.0007,0.0,-0.0031,-0.0045,-0.0046,-0.0088,-0.0122,-0.0213,-0.0209,-0.0222,-0.0219,-0.0324,-0.0324,-0.0324,-0.0248,-0.0241,-0.0235,0,0,0,0,0,0,0.0085,0.0063,0.0052,0.0056,0.0037,-0.0001,-0.0004,-0.0024,-0.0057,-0.0062,-0.012,-0.0134,-0.0164,-0.0203,-0.0198,-0.0247,-0.0274,-0.0277,-0.0212,-0.0206,-0.0201,-0.0176,-0.0243,0,0,0,0,0,0.0095,0.0097,0.0071,0.0075,0.0068,0.0034,0.0023,0.0004,-0.0029,-0.0044,-0.0086,-0.0133,-0.0173,-0.0198,-0.0238,-0.0264,-0.029,-0.0273,-0.0267,-0.0262,-0.0251,-0.0288,-0.0284,-0.0323,-0.0323,-0.0323,0,0,0.0107,0.0096,0.0097,0.0081,0.0063,0.0063,0.0026,0.0017,0.0015,-0.0052,-0.0069,-0.0114,-0.0175,-0.0203,-0.0221,-0.0236,-0.0263,-0.0262,-0.0257,-0.0249,-0.0287,-0.0283,-0.0279,-0.0323,-0.0323,-0.0323,0,0,0.0138,0.0124,0.0139,0.0127,0.0109,0.0087,0.0089,0.0057,0.004,0.0019,-0.003,-0.0069,-0.0128,-0.017,-0.02,-0.0191,-0.0231,-0.0205,-0.0162,-0.0197,-0.0193,-0.0191,-0.0204,-0.0203,-0.0206,-0.0205,-0.0205,0,0.0154,0.0166,0.014,0.015,0.0146,0.0104,0.0119,0.0096,0.0057,0.0048,0.0024,-0.0056,-0.0112,-0.0147,-0.0147,-0.0179,-0.0194,-0.0178,-0.0188,-0.0186,-0.0185,-0.0199,-0.0199,-0.0202,-0.0202,-0.0202,-0.0203,0,0.0193,0.0203,0.021,0.021,0.0203,0.0206,0.0178,0.0169,0.0142,0.0116,0.0083,0.0011,-0.0035,-0.0064,-0.0105,-0.0125,-0.0136,-0.0172,-0.0197,-0.0175,-0.0193,-0.0194,-0.0196,-0.0197,-0.0199,-0.0199,0,0,0.0232,0.0237,0.0242,0.0256,0.0235,0.0239,0.0236,0.0223,0.0234,0.0181,0.0185,0.01,0.0065,0.0029,-0.003,-0.0068,-0.0079,-0.0108,-0.0112,-0.0109,-0.0133,-0.0116,-0.0117,-0.0112,-0.0112,-0.0113,-0.0143,0,0.027,0.0311,0.0296,0.0333,0.0351,0.0317,0.0325,0.0308,0.0281,0.0275,0.0197,0.0177,0.0099,0.0086,0.0034,-0.0046,-0.0082,-0.0066,-0.0166,-0.0168,-0.0146,-0.0118,-0.0115,-0.0139,-0.0145,-0.0145,-0.0145,0,0.0314,0.0336,0.0384,0.0406,0.0412,0.0427,0.0439,0.0442,0.0412,0.0394,0.0352,0.0295,0.0234,0.0166,0.0045,0.0063,-0.0025,-0.0093,-0.0097,-0.011,-0.0155,-0.0168,-0.0143,-0.0324,-0.0148,-0.0148,-0.0148,0,0.0366,0.0397,0.0441,0.0447,0.0466,0.0485,0.0494,0.0482,0.0507,0.0478,0.0501,0.0399,0.0382,0.0249,0.0108,0.0078,-0.0012,-0.0079,-0.0147,-0.0146,-0.0178,-0.0179,-0.033,-0.0164,-0.0164,-0.0164,-0.0164,0,0.0413,0.045,0.0475,0.0503,0.0565,0.0555,0.0616,0.0608,0.0624,0.0684,0.0577,0.0614,0.0405,0.0326,0.0162,0.0028,0.0027,-0.0122,-0.0151,-0.0148,-0.0146,-0.0333,-0.0452,-0.0165,-0.0165,-0.0165,-0.0164,0,0.0469,0.0481,0.0537,0.0574,0.0595,0.0643,0.0707,0.0754,0.0762,0.0841,0.0846,0.0785,0.0698,0.0492,0.0295,0.0131,-0.0138,-0.008,-0.0047,-0.0071,-0.0315,-0.0428,-0.0603,-0.0724,-0.0167,-0.0167,-0.0167,0,0.0502,0.0539,0.06,0.0648,0.0672,0.0742,0.0799,0.0821,0.0887,0.0969,0.1025,0.0972,0.0976,0.0701,0.0395,0.0125,-0.01,-0.0074,-0.0149,-0.0311,-0.046,-0.0543,-0.0639,-0.016,-0.016,-0.0159,-0.0159,0,0.057,0.059,0.0641,0.0743,0.0813,0.0894,0.0983,0.1062,0.1124,0.1213,0.1338,0.1357,0.1115,0.0848,0.0465,0.0263,-0.0222,-0.0077,-0.027,-0.0477,-0.0554,-0.0688,-0.0147,-0.0157,-0.0157,-0.0158,-0.0158,-0.0158,0.0625,0.0674,0.0753,0.0853,0.0937,0.1065,0.1157,0.1271,0.1425,0.1595,0.1588,0.1668,0.124,0.0739,0.0424,-0.0156,-0.0187,-0.0357,-0.0481,-0.0548,-0.0671,-0.0101,-0.0129,-0.0129,-0.0129,-0.0129,-0.0129,0,0.0712,0.0774,0.0864,0.0987,0.1101,0.1128,0.1298,0.1407,0.1617,0.1776,0.1896,0.1753,0.1241,0.0685,-0.0097,-0.05,-0.0683,-0.0733,-0.0883,-0.0967,-0.0476,-0.0482,-0.0556,-0.0555,-0.0555,-0.0555,-0.0555,-0.0555,0.0766,0.0878,0.0928,0.1131,0.1213,0.1375,0.1485,0.1647,0.1788,0.1998,0.2059,0.2077,0.1646,0.0253,-0.0704,-0.0927,-0.1251,-0.129,-0.1473,-0.1163,-0.1138,-0.1115,-0.1147,-0.1359,-0.1361,-0.1922,-0.1928,-0.1932]}],[{"header":{"parameterUnit":"m.s-1","parameterCategory":2,"la1":30.2991,"la2":30.254,"lo1":-89.0895,"lo2":-89.0444,"dy":0.0017,"dx":0.0017,"nx":28,"ny":28,"refTime":"2024-04-25T09:00:00:Z","depth":"2","parameterNumber":2,"parameterNumberName":"U-component_of_CURRENTS"},"data":[0,0,0,0,0,0,0,0,0,0,0,0,0,0,0,0,0,0,0,0,0,0,0,0,0,0,0,0,0,0,0,0,0,0,0,0,0,0,0,0,0,0,0,0,0,0,0,0,0,0,0,0,0,0,0,0,0,0,0.2507,0.2507,0,0.2536,0.2536,0.2537,0.2554,0.2554,0.2554,0.2554,0.2602,0.2603,0.2605,0,0,0,0,0,0,0,0,0,0,0,0,0,0.2454,0.2455,0.2507,0.2507,0.2507,0.2536,0.2536,0.2537,0.2554,0.2554,0.2554,0.2554,0.2602,0.2603,0.2605,0,0,0,0,0,0,0,0,0,0,0,0,0,0.248,0.2456,0.2507,0.2519,0.252,0.2536,0.2536,0.2537,0.2554,0.2554,0.2554,0.2554,0.2601,0.2603,0.2605,0.2616,0,0,0.2611,0.2611,0,0,0,0,0,0,0,0,0.2479,0.2482,0.2517,0.2518,0.252,0.2541,0.2535,0.2564,0.2554,0.2542,0.2554,0.2554,0.2583,0.2586,0.2592,0.2618,0.262,0.2611,0.2612,0.2613,0.2613,0,0,0,0,0,0,0,0.2477,0.2481,0.2519,0.2517,0.2519,0.2519,0.2523,0.2541,0.2563,0.2543,0.2544,0.2546,0.2584,0.259,0.2594,0.2621,0.2611,0.2612,0.2614,0.2614,0.272,0.2722,0,0,0,0,0,0,0.2473,0.248,0.2518,0.252,0.2498,0.252,0.2524,0.2535,0.2562,0.2566,0.2546,0.2547,0.2587,0.2591,0.2595,0.2664,0.2613,0.2614,0.2616,0.2718,0.272,0.2722,0,0,0,0,0,0,0.2472,0.2476,0.2517,0.2499,0.2504,0.2521,0.2532,0.2535,0.255,0.2564,0.2569,0.2559,0.2587,0.2593,0.2636,0.2664,0.2615,0.2617,0.2716,0.2719,0.2721,0.2767,0,0,0,0,0,0,0.247,0.2476,0.2482,0.2499,0.2505,0.2547,0.2532,0.2536,0.255,0.2552,0.2577,0.258,0.2588,0.2633,0.2638,0.2666,0.2619,0.2714,0.2718,0.272,0.2763,0.277,0.2777,0,0,0,0,0,0.2469,0.2482,0.2483,0.2487,0.2514,0.2549,0.2553,0.2564,0.2551,0.2573,0.259,0.258,0.2656,0.2636,0.2641,0.267,0.2713,0.2717,0.272,0.276,0.2769,0.2777,0,0,0,0,0,0,0.2466,0.2485,0.2487,0.2506,0.2533,0.2552,0.2567,0.2568,0.2596,0.2596,0.2602,0.2609,0.2657,0.2659,0.2637,0.2711,0.2683,0.2688,0.2711,0.272,0.2726,0.2732,0.262,0,0,0,0,0,0.2466,0.2481,0.2504,0.2522,0.2536,0.255,0.2562,0.2573,0.2596,0.2608,0.2625,0.2646,0.2675,0.2693,0.2719,0.2758,0.2768,0.2781,0.2787,0.2793,0.2802,0.2831,0.2841,0.2735,0.2735,0.2734,0,0,0.2465,0.2481,0.2487,0.2522,0.2539,0.2571,0.2559,0.2588,0.2614,0.2609,0.2652,0.2671,0.2692,0.2742,0.2763,0.2747,0.2835,0.2798,0.2803,0.2809,0.2836,0.2846,0.2855,0.2737,0.2737,0.2736,0,0,0.2479,0.2492,0.2511,0.254,0.2574,0.2589,0.26,0.263,0.2645,0.2688,0.2693,0.2732,0.2771,0.2799,0.2813,0.2873,0.2869,0.288,0.2919,0.2947,0.2956,0.2964,0.301,0.3021,0.2883,0.2883,0.2883,0,0.2476,0.2506,0.2524,0.2559,0.2583,0.2599,0.2634,0.2656,0.2697,0.272,0.2712,0.2786,0.2799,0.2862,0.2886,0.2888,0.2908,0.2883,0.2955,0.2963,0.297,0.3015,0.3027,0.2885,0.2885,0.2885,0.2885,0,0.251,0.2536,0.2555,0.2602,0.2635,0.267,0.2705,0.2741,0.2755,0.2775,0.2838,0.2863,0.2909,0.292,0.2922,0.2986,0.2987,0.2958,0.293,0.2983,0.3028,0.304,0.2889,0.2888,0.2887,0.2887,0,0,0.2488,0.2561,0.2566,0.2597,0.266,0.2692,0.2748,0.2804,0.2837,0.2878,0.2925,0.298,0.299,0.3009,0.3018,0.3043,0.3115,0.3027,0.3027,0.3067,0.3197,0.3164,0.3174,0.3095,0.3097,0.3098,0.3216,0,0.2506,0.2576,0.2606,0.2669,0.2711,0.2753,0.2805,0.286,0.2897,0.2948,0.2982,0.3029,0.3023,0.3048,0.3078,0.3108,0.3145,0.3087,0.3145,0.3148,0.3106,0.3185,0.2932,0.3012,0.3227,0.3229,0.323,0,0.2522,0.2573,0.2633,0.2715,0.2735,0.2771,0.2858,0.2905,0.2982,0.3014,0.307,0.309,0.3164,0.3125,0.3221,0.3186,0.3202,0.3213,0.3217,0.3176,0.3136,0.299,0.3024,0.3249,0.3248,0.3246,0.3245,0,0.2504,0.2587,0.2633,0.2661,0.2754,0.2787,0.2841,0.2924,0.2963,0.3053,0.309,0.317,0.3218,0.3253,0.3314,0.3264,0.341,0.3334,0.3325,0.3324,0.3115,0.3092,0.3389,0.3389,0.3388,0.3388,0.3388,0,0.251,0.2545,0.2625,0.265,0.2703,0.2782,0.2833,0.2903,0.2989,0.304,0.3114,0.3175,0.3248,0.3338,0.3357,0.3415,0.3456,0.3359,0.3356,0.3127,0.3105,0.3304,0.3292,0.3393,0.3392,0.3391,0.339,0,0.2468,0.2524,0.257,0.2662,0.2687,0.2723,0.281,0.2847,0.2954,0.3024,0.3057,0.3202,0.3334,0.3424,0.3515,0.3477,0.3525,0.3529,0.3279,0.3243,0.34,0.339,0.3498,0.3498,0.3498,0.3497,0.3497,0,0.245,0.2473,0.2546,0.2565,0.2595,0.2656,0.269,0.2805,0.2848,0.3035,0.3064,0.3241,0.3334,0.35,0.3502,0.3559,0.36,0.3321,0.3158,0.3428,0.3414,0.3404,0.3394,0.291,0.2905,0.2901,0.2898,0,0.2411,0.2425,0.2459,0.25,0.2526,0.2559,0.263,0.2658,0.2801,0.2887,0.3036,0.3136,0.3311,0.3268,0.3364,0.3345,0.3286,0.3239,0.3598,0.2925,0.2883,0.2867,0.2874,0.2862,0.2866,0.2868,0.287,0.2872,0.2362,0.2364,0.2405,0.2435,0.2453,0.247,0.2479,0.2561,0.2634,0.2736,0.2902,0.2958,0.3027,0.3031,0.2989,0.2954,0.3149,0.2974,0.2981,0.2994,0.2908,0.2869,0.2831,0.2834,0.2837,0.284,0.2842,0,0.2326,0.2337,0.2352,0.237,0.2349,0.2401,0.2437,0.2425,0.2479,0.2568,0.2668,0.2492,0.2501,0.2584,0.2472,0.2479,0.2401,0.238,0.2244,0.2285,0.232,0.2192,0.1929,0.1925,0.1922,0.1919,0,0,0.2312,0.2312,0.2322,0.2277,0.2278,0.2243,0.2253,0.2265,0.2297,0.2223,0.2206,0.2379,0.2498,0.2154,0.2147,0.2017,0.2119,0.1943,0.2689,0.2571,0.26,0.2695,0.2552,0,0,0,0,0]},{"header":{"parameterUnit":"m.s-1","parameterCategory":2,"la1":30.2991,"la2":30.254,"lo1":-89.0895,"lo2":-89.0444,"dy":0.0017,"dx":0.0017,"nx":28,"ny":28,"refTime":"2024-04-25T09:00:00:Z","depth":"2","parameterNumber":3,"parameterNumberName":"V-component_of_CURRENTS"},"data":[0,0,0,0,0,0,0,0,0,0,0,0,0,0,0,0,0,0,0,0,0,0,0,0,0,0,0,0,0,0,0,0,0,0,0,0,0,0,0,0,0,0,0,0,0,0,0,0,0,0,0,0,0,0,0,0,0,0,-0.0021,-0.0021,0,-0.0091,-0.0092,-0.0093,-0.0136,-0.0136,-0.0136,-0.0136,-0.0262,-0.0266,-0.0269,0,0,0,0,0,0,0,0,0,0,0,0,0,0.0017,0.0017,-0.0021,-0.0022,-0.0022,-0.0091,-0.0092,-0.0093,-0.0136,-0.0136,-0.0136,-0.0136,-0.0261,-0.0265,-0.0269,0,0,0,0,0,0,0,0,0,0,0,0,0,-0.0022,0.0017,-0.0021,-0.0051,-0.0055,-0.0091,-0.0092,-0.0094,-0.0136,-0.0136,-0.0136,-0.0137,-0.026,-0.0265,-0.027,-0.0295,0,0,-0.0284,-0.0287,0,0,0,0,0,0,0,0,-0.0019,-0.0023,-0.0046,-0.0049,-0.0053,-0.0104,-0.0125,-0.0164,-0.0136,-0.0106,-0.0136,-0.0137,-0.0214,-0.0223,-0.0236,-0.0301,-0.0307,-0.0285,-0.0288,-0.029,-0.0291,0,0,0,0,0,0,0,-0.0017,-0.0021,-0.005,-0.0047,-0.0051,-0.0082,-0.0087,-0.0133,-0.016,-0.0109,-0.0112,-0.0118,-0.0217,-0.0231,-0.0239,-0.0309,-0.0285,-0.0289,-0.0292,-0.0294,-0.0387,-0.0386,0,0,0,0,0,0,-0.0003,-0.0018,-0.0047,-0.0052,-0.0035,-0.0082,-0.0088,-0.0088,-0.0158,-0.0168,-0.0118,-0.012,-0.0223,-0.0234,-0.0244,-0.026,-0.029,-0.0294,-0.0297,-0.0387,-0.0387,-0.0386,0,0,0,0,0,0,-0.0002,-0.0004,-0.0044,-0.0036,-0.0043,-0.0082,-0.0082,-0.009,-0.01,-0.0164,-0.0176,-0.012,-0.0223,-0.0237,-0.027,-0.0266,-0.0297,-0.0301,-0.0388,-0.0387,-0.0386,-0.0305,0,0,0,0,0,0,-0.0,-0.0003,0.0001,-0.0035,-0.0043,-0.0054,-0.0082,-0.0091,-0.0104,-0.0107,-0.0171,-0.0183,-0.0225,-0.0263,-0.0275,-0.0273,-0.0305,-0.0388,-0.0387,-0.0387,-0.0308,-0.0302,-0.0296,0,0,0,0,0,0.0002,0.0013,0.0002,-0.0001,-0.0035,-0.0053,-0.006,-0.009,-0.0104,-0.0101,-0.0141,-0.018,-0.0267,-0.0266,-0.0281,-0.0281,-0.0389,-0.0388,-0.0387,-0.0311,-0.0303,-0.0296,0,0,0,0,0,0,0.0032,0.0008,-0.0004,-0.0,-0.002,-0.006,-0.0062,-0.0083,-0.0113,-0.0116,-0.0176,-0.0191,-0.0219,-0.0259,-0.0257,-0.0304,-0.0334,-0.0336,-0.0272,-0.0265,-0.0259,-0.0235,-0.0309,0,0,0,0,0,0.0042,0.0044,0.0016,0.0019,0.0013,-0.0023,-0.0035,-0.0052,-0.0084,-0.0097,-0.0141,-0.0187,-0.0227,-0.0251,-0.0292,-0.0319,-0.0349,-0.0329,-0.0322,-0.0317,-0.0307,-0.0344,-0.034,-0.0383,-0.0383,-0.0383,0,0,0.0054,0.0041,0.0042,0.0025,0.0007,0.0007,-0.003,-0.0038,-0.004,-0.0108,-0.0123,-0.0168,-0.0229,-0.0255,-0.0272,-0.0288,-0.0318,-0.0316,-0.031,-0.0303,-0.0342,-0.0338,-0.0335,-0.0382,-0.0382,-0.0382,0,0,0.0084,0.0071,0.0084,0.0073,0.0055,0.0033,0.0036,0.0003,-0.0012,-0.0032,-0.0079,-0.0116,-0.0178,-0.0217,-0.0247,-0.0233,-0.0283,-0.0249,-0.0203,-0.0239,-0.0235,-0.0233,-0.0253,-0.0253,-0.0248,-0.0248,-0.0247,0,0.01,0.0112,0.0085,0.0096,0.0092,0.0051,0.0066,0.0044,0.0006,-0.0002,-0.0024,-0.0104,-0.016,-0.0192,-0.0188,-0.022,-0.024,-0.0225,-0.0229,-0.0228,-0.0226,-0.0249,-0.025,-0.0244,-0.0244,-0.0244,-0.0245,0,0.0138,0.0148,0.0156,0.0156,0.015,0.0155,0.0127,0.012,0.0094,0.0068,0.0038,-0.0032,-0.0077,-0.0105,-0.0146,-0.0164,-0.0181,-0.0214,-0.0244,-0.0217,-0.0242,-0.0245,-0.0238,-0.0239,-0.024,-0.0241,0,0,0.0176,0.0182,0.0187,0.0202,0.0183,0.0189,0.0188,0.0176,0.0187,0.0136,0.014,0.0059,0.0025,-0.001,-0.0068,-0.0106,-0.0121,-0.0148,-0.0152,-0.0161,-0.0183,-0.0215,-0.0221,-0.0152,-0.0153,-0.0153,-0.0201,0,0.0214,0.0255,0.0242,0.028,0.0298,0.0268,0.0276,0.0262,0.0235,0.0229,0.0154,0.0133,0.0059,0.0046,-0.0005,-0.0088,-0.0125,-0.0104,-0.0216,-0.0219,-0.0244,-0.0224,-0.0192,-0.0233,-0.0203,-0.0204,-0.0204,0,0.0256,0.0279,0.033,0.0353,0.036,0.0376,0.0391,0.0394,0.0366,0.0347,0.0306,0.0249,0.0189,0.0124,-0.0001,0.002,-0.0071,-0.0142,-0.0146,-0.0205,-0.0255,-0.026,-0.024,-0.0209,-0.0208,-0.0208,-0.0208,0,0.0308,0.034,0.0387,0.0394,0.0414,0.0436,0.0446,0.0435,0.0459,0.043,0.0448,0.0349,0.0327,0.0196,0.0052,0.0026,-0.0077,-0.0138,-0.0251,-0.0254,-0.0264,-0.0267,-0.0225,-0.0225,-0.0225,-0.0225,-0.0225,0,0.0355,0.0393,0.0421,0.045,0.0513,0.0505,0.0566,0.0559,0.0573,0.0626,0.0523,0.0548,0.0346,0.0261,0.01,-0.0065,-0.0042,-0.0234,-0.0269,-0.0234,-0.0235,-0.0249,-0.0251,-0.0227,-0.0226,-0.0226,-0.0225,0,0.041,0.0425,0.0482,0.0521,0.0543,0.0593,0.0656,0.0701,0.0706,0.0775,0.0779,0.0706,0.0597,0.0397,0.0195,0.0018,-0.0153,-0.0219,-0.0157,-0.0185,-0.0323,-0.032,-0.0368,-0.0369,-0.0371,-0.0372,-0.0373,0,0.0443,0.0481,0.0545,0.0593,0.0619,0.069,0.0745,0.0767,0.0826,0.0887,0.0935,0.0859,0.0808,0.0502,0.019,-0.0098,-0.0125,-0.0264,-0.0332,-0.0308,-0.0338,-0.0333,-0.0329,-0.0306,-0.0306,-0.0307,-0.0307,0,0.0509,0.0531,0.0583,0.0684,0.0754,0.0833,0.0918,0.0985,0.1038,0.109,0.1163,0.1131,0.0852,0.0558,0.016,-0.0033,-0.0226,-0.0282,-0.0259,-0.028,-0.0256,-0.0283,-0.028,-0.0309,-0.0309,-0.0309,-0.0308,-0.0308,0.0563,0.0609,0.0688,0.0783,0.0871,0.0985,0.1068,0.1151,0.1258,0.1322,0.1302,0.1233,0.0924,0.0384,0.0082,-0.0243,-0.0251,-0.0383,-0.038,-0.0377,-0.0366,-0.0347,-0.0413,-0.0414,-0.0414,-0.0414,-0.0415,0,0.0631,0.0691,0.0786,0.0903,0.0997,0.1046,0.1195,0.1245,0.1373,0.1387,0.1397,0.1069,0.0764,0.0438,-0.0059,-0.0371,-0.0387,-0.0444,-0.0393,-0.0388,-0.0385,-0.0373,-0.0423,-0.0424,-0.0425,-0.0426,0,0,0.0677,0.0778,0.0826,0.0997,0.1084,0.1243,0.1335,0.1406,0.1438,0.1373,0.1312,0.12,0.0834,0.0467,0.0091,-0.0161,-0.0211,-0.0213,-0.0175,-0.0064,-0.0058,-0.0319,-0.0292,0,0,0,0,0]}],[{"header":{"parameterUnit":"m.s-1","parameterCategory":2,"la1":30.2991,"la2":30.254,"lo1":-89.0895,"lo2":-89.0444,"dy":0.0017,"dx":0.0017,"nx":28,"ny":28,"refTime":"2024-04-25T09:00:00:Z","depth":"4","parameterNumber":2,"parameterNumberName":"U-component_of_CURRENTS"},"data":[0,0,0,0,0,0,0,0,0,0,0,0,0,0,0,0,0,0,0,0,0,0,0,0,0,0,0,0,0,0,0,0,0,0,0,0,0,0,0,0,0,0,0,0,0,0,0,0,0,0,0,0,0,0,0,0,0,0,0.1534,0.1535,0,0.1594,0.1595,0.1595,0.1645,0.1646,0.1647,0.1648,0.1694,0.1694,0.1694,0,0,0,0,0,0,0,0,0,0,0,0,0,0.1438,0.144,0.1534,0.1535,0.1536,0.1594,0.1595,0.1595,0.1645,0.1646,0.1647,0.1648,0.1694,0.1694,0.1694,0,0,0,0,0,0,0,0,0,0,0,0,0,0.1484,0.144,0.1534,0.1571,0.1575,0.1594,0.1595,0.1595,0.1645,0.1646,0.1648,0.1649,0.1693,0.1694,0.1695,0.1672,0,0,0.1696,0.1697,0,0,0,0,0,0,0,0,0.1481,0.1487,0.1564,0.1568,0.1573,0.1617,0.1578,0.1622,0.1645,0.1615,0.1648,0.165,0.1668,0.1671,0.1674,0.1674,0.1676,0.1696,0.1697,0.1697,0.1697,0,0,0,0,0,0,0,0.1478,0.1485,0.1554,0.1565,0.1571,0.1577,0.1584,0.1586,0.163,0.1617,0.1622,0.1634,0.167,0.1674,0.1676,0.1677,0.1696,0.1697,0.1697,0.1698,0.1798,0.18,0,0,0,0,0,0,0.1478,0.1482,0.1552,0.1556,0.1534,0.1578,0.1586,0.1599,0.1631,0.1638,0.1633,0.1636,0.1672,0.1675,0.1678,0.1755,0.1697,0.1698,0.1698,0.1796,0.1798,0.1801,0,0,0,0,0,0,0.1476,0.1484,0.155,0.1523,0.1533,0.1579,0.1592,0.1599,0.1641,0.1643,0.165,0.1672,0.1673,0.1677,0.1718,0.1753,0.1698,0.1698,0.1793,0.1796,0.18,0.1844,0,0,0,0,0,0,0.1473,0.1482,0.1505,0.1523,0.1534,0.1582,0.1591,0.1599,0.1646,0.1652,0.1678,0.1682,0.1674,0.1718,0.1719,0.1753,0.1699,0.179,0.1794,0.1798,0.1839,0.1848,0.1856,0,0,0,0,0,0.1469,0.1487,0.1505,0.1515,0.1559,0.1584,0.159,0.1623,0.1647,0.1666,0.1694,0.1683,0.1747,0.1719,0.172,0.1756,0.1788,0.1793,0.1798,0.1836,0.1846,0.1855,0,0,0,0,0,0,0.1456,0.1495,0.1515,0.1545,0.1575,0.1594,0.162,0.1643,0.168,0.1697,0.1701,0.1706,0.1757,0.1755,0.1725,0.1802,0.177,0.1775,0.1798,0.1808,0.1816,0.1823,0.1699,0,0,0,0,0,0.1464,0.1493,0.1524,0.1552,0.157,0.1603,0.1624,0.1648,0.1677,0.1697,0.1719,0.1748,0.1771,0.179,0.1806,0.184,0.1855,0.187,0.1878,0.1885,0.1895,0.1962,0.1977,0.1818,0.1818,0.1818,0,0,0.1468,0.1494,0.1512,0.1553,0.158,0.1603,0.1619,0.1661,0.1692,0.1693,0.1752,0.1774,0.1788,0.1831,0.1854,0.1838,0.1938,0.1891,0.1896,0.1903,0.1969,0.1984,0.1998,0.1821,0.1821,0.182,0,0,0.1475,0.1515,0.1536,0.1564,0.1613,0.1628,0.1649,0.1692,0.1728,0.1779,0.1794,0.1844,0.1878,0.1898,0.191,0.1976,0.1978,0.199,0.2036,0.2101,0.2114,0.2126,0.2157,0.2171,0.1995,0.1995,0.1995,0,0.1481,0.1511,0.1546,0.1572,0.1603,0.1643,0.1671,0.1704,0.176,0.18,0.1809,0.1899,0.1909,0.1966,0.1994,0.1993,0.2024,0.199,0.211,0.2122,0.2134,0.2163,0.2178,0.1998,0.1998,0.1997,0.1997,0,0.1493,0.153,0.1547,0.1592,0.1627,0.1661,0.1709,0.1759,0.1812,0.185,0.1939,0.1965,0.2027,0.2037,0.2034,0.2124,0.2116,0.2109,0.2079,0.2152,0.2178,0.2193,0.2002,0.2001,0.2,0.1999,0,0,0.1468,0.1541,0.1551,0.1583,0.1647,0.1674,0.1737,0.1804,0.1866,0.1931,0.2018,0.2066,0.2109,0.2128,0.2142,0.2193,0.2291,0.2194,0.2196,0.2214,0.2427,0.2252,0.2251,0.2314,0.2317,0.232,0.2409,0,0.1469,0.1518,0.1558,0.1614,0.1643,0.171,0.1765,0.1839,0.1912,0.2005,0.2067,0.2151,0.2135,0.2188,0.2238,0.2286,0.2336,0.2267,0.2364,0.2366,0.2193,0.2264,0.233,0.242,0.2423,0.2426,0.2427,0,0.1458,0.1499,0.1551,0.1639,0.1662,0.1709,0.1823,0.1882,0.2008,0.2074,0.2171,0.2231,0.2329,0.231,0.2425,0.2389,0.2421,0.2441,0.2445,0.2277,0.2219,0.2336,0.2454,0.2452,0.245,0.2448,0.2447,0,0.1413,0.1491,0.1538,0.1567,0.1668,0.1728,0.1797,0.1915,0.1986,0.2142,0.2217,0.233,0.2412,0.2479,0.252,0.2504,0.2628,0.2608,0.2473,0.2461,0.257,0.2557,0.2697,0.2697,0.2697,0.2696,0.2696,0,0.1379,0.1421,0.1531,0.1561,0.1635,0.1725,0.1827,0.1912,0.2053,0.2138,0.2264,0.2338,0.2467,0.2543,0.2568,0.2553,0.2673,0.2492,0.248,0.2585,0.2573,0.258,0.2565,0.27,0.2699,0.2698,0.2698,0,0.1311,0.1378,0.1442,0.157,0.1613,0.1677,0.1834,0.1906,0.2048,0.2169,0.2231,0.2388,0.248,0.2557,0.2664,0.2594,0.261,0.2575,0.2674,0.2664,0.239,0.2378,0.2447,0.2442,0.2438,0.2434,0.2431,0,0.1273,0.1301,0.1437,0.1481,0.1546,0.1655,0.1727,0.1886,0.1962,0.2165,0.2211,0.2365,0.2445,0.2442,0.2537,0.2565,0.2534,0.2523,0.246,0.2388,0.237,0.2364,0.2357,0.2424,0.2423,0.2421,0.242,0,0.121,0.1274,0.1329,0.1423,0.1508,0.1584,0.1708,0.1749,0.1927,0.2068,0.2141,0.2198,0.2286,0.2345,0.2375,0.2391,0.2521,0.2476,0.2485,0.2426,0.236,0.2345,0.2344,0.2405,0.2407,0.2408,0.2409,0,0.1165,0.1189,0.1279,0.1347,0.1443,0.1496,0.1569,0.1658,0.1748,0.1961,0.1977,0.2125,0.2259,0.2255,0.2287,0.2283,0.2258,0.2185,0.2208,0.2227,0.2111,0.1992,0.1924,0,0,0,0,0,0.1111,0.1134,0.1198,0.1266,0.1357,0.142,0.1546,0.1622,0.1785,0.1784,0.1875,0.1944,0.1999,0.2077,0.2032,0.2204,0.2272,0.2143,0.2201,0.2319,0.2337,0.2219,0,0,0,0,0,0,0.1078,0.1129,0.1163,0.1189,0.1223,0.1314,0.1393,0.15,0.1506,0.1669,0.1705,0.1825,0.1906,0.2001,0.1994,0.2017,0.2014,0.2234,0.2229,0.2309,0.2325,0.2339,0.2225,0,0,0,0,0]},{"header":{"parameterUnit":"m.s-1","parameterCategory":2,"la1":30.2991,"la2":30.254,"lo1":-89.0895,"lo2":-89.0444,"dy":0.0017,"dx":0.0017,"nx":28,"ny":28,"refTime":"2024-04-25T09:00:00:Z","depth":"4","parameterNumber":3,"parameterNumberName":"V-component_of_CURRENTS"},"data":[0,0,0,0,0,0,0,0,0,0,0,0,0,0,0,0,0,0,0,0,0,0,0,0,0,0,0,0,0,0,0,0,0,0,0,0,0,0,0,0,0,0,0,0,0,0,0,0,0,0,0,0,0,0,0,0,0,0,-0.0035,-0.0035,0,-0.0077,-0.0077,-0.0078,-0.0111,-0.0111,-0.0111,-0.0111,-0.0201,-0.0203,-0.0205,0,0,0,0,0,0,0,0,0,0,0,0,0,-0.0026,-0.0026,-0.0035,-0.0035,-0.0036,-0.0077,-0.0077,-0.0078,-0.011,-0.0111,-0.0111,-0.0111,-0.02,-0.0202,-0.0205,0,0,0,0,0,0,0,0,0,0,0,0,0,-0.0046,-0.0026,-0.0035,-0.0056,-0.0059,-0.0077,-0.0077,-0.0078,-0.011,-0.0111,-0.0111,-0.0111,-0.0199,-0.0202,-0.0205,-0.0218,0,0,-0.0215,-0.0217,0,0,0,0,0,0,0,0,-0.0044,-0.0046,-0.0053,-0.0055,-0.0057,-0.0088,-0.0107,-0.0127,-0.011,-0.0092,-0.0111,-0.0112,-0.0167,-0.0172,-0.018,-0.0222,-0.0226,-0.0215,-0.0217,-0.0219,-0.022,0,0,0,0,0,0,0,-0.0043,-0.0045,-0.0052,-0.0053,-0.0056,-0.0079,-0.0081,-0.0111,-0.0128,-0.0093,-0.0096,-0.0099,-0.0168,-0.0177,-0.0183,-0.0228,-0.0215,-0.0218,-0.022,-0.0222,-0.0279,-0.0279,0,0,0,0,0,0,-0.0033,-0.0043,-0.0051,-0.0054,-0.0051,-0.0078,-0.0081,-0.0079,-0.0127,-0.0134,-0.0098,-0.01,-0.0171,-0.0179,-0.0186,-0.019,-0.0219,-0.0222,-0.0224,-0.028,-0.0279,-0.0279,0,0,0,0,0,0,-0.0033,-0.0033,-0.0049,-0.0049,-0.0053,-0.0077,-0.0074,-0.0079,-0.0089,-0.013,-0.0138,-0.0103,-0.0172,-0.0181,-0.0203,-0.0194,-0.0223,-0.0226,-0.028,-0.0279,-0.0279,-0.0208,0,0,0,0,0,0,-0.0032,-0.0033,-0.0028,-0.0048,-0.0052,-0.0053,-0.0074,-0.008,-0.009,-0.0092,-0.0137,-0.0145,-0.0173,-0.0198,-0.0207,-0.0199,-0.0229,-0.0281,-0.028,-0.0279,-0.021,-0.0205,-0.02,0,0,0,0,0,-0.0032,-0.0021,-0.0028,-0.0029,-0.0045,-0.0052,-0.0056,-0.0076,-0.0089,-0.0087,-0.0115,-0.0144,-0.02,-0.02,-0.021,-0.0204,-0.0281,-0.028,-0.0279,-0.0213,-0.0206,-0.02,0,0,0,0,0,0,-0.0016,-0.0023,-0.0032,-0.0024,-0.0035,-0.0057,-0.0058,-0.0073,-0.0094,-0.0097,-0.0139,-0.0149,-0.0166,-0.0195,-0.0195,-0.0218,-0.0245,-0.0246,-0.0191,-0.0185,-0.018,-0.0165,-0.0231,0,0,0,0,0,-0.0009,-0.0003,-0.0016,-0.0011,-0.0013,-0.0036,-0.0043,-0.0054,-0.0074,-0.0084,-0.0114,-0.0146,-0.017,-0.0184,-0.0212,-0.0225,-0.026,-0.0228,-0.0222,-0.0217,-0.0212,-0.0256,-0.0254,-0.0276,-0.0276,-0.0276,0,0,-0.0001,-0.0005,-0.0002,-0.0007,-0.0018,-0.0011,-0.0041,-0.0044,-0.0038,-0.0091,-0.0096,-0.013,-0.017,-0.0181,-0.0192,-0.0204,-0.0229,-0.0216,-0.0212,-0.021,-0.0255,-0.0253,-0.0251,-0.0275,-0.0275,-0.0275,0,0,0.0023,0.0015,0.0031,0.0026,0.0017,0.0007,0.0008,-0.001,-0.0019,-0.0029,-0.0063,-0.0087,-0.0128,-0.0148,-0.0165,-0.0148,-0.02,-0.0161,-0.0121,-0.0163,-0.0161,-0.0161,-0.0196,-0.0199,-0.0156,-0.0156,-0.0156,0,0.0032,0.005,0.0033,0.0046,0.0049,0.0019,0.0038,0.0027,0.0004,-0.0001,-0.0021,-0.0076,-0.0109,-0.0122,-0.0113,-0.0135,-0.0169,-0.014,-0.0155,-0.0155,-0.0156,-0.0192,-0.0197,-0.0152,-0.0153,-0.0153,-0.0153,0,0.0067,0.0081,0.0089,0.01,0.0101,0.0109,0.0098,0.0095,0.0077,0.0059,0.0038,-0.0008,-0.004,-0.0054,-0.0078,-0.0093,-0.0119,-0.0144,-0.0169,-0.0149,-0.0189,-0.0195,-0.0147,-0.0149,-0.015,-0.015,0,0,0.009,0.0112,0.0115,0.0133,0.013,0.0138,0.015,0.0151,0.0156,0.0123,0.0121,0.0079,0.0044,0.0023,-0.0015,-0.0049,-0.0077,-0.0091,-0.0095,-0.0121,-0.0171,-0.0182,-0.019,-0.011,-0.011,-0.0111,-0.0195,0,0.0122,0.0164,0.0165,0.0206,0.0226,0.0212,0.0226,0.0221,0.0201,0.0189,0.014,0.0119,0.0077,0.006,0.0022,-0.0056,-0.009,-0.0052,-0.0191,-0.0195,-0.0204,-0.0196,-0.0113,-0.02,-0.0201,-0.0202,-0.0203,0,0.0156,0.0181,0.023,0.0264,0.0272,0.0291,0.0306,0.0318,0.0293,0.0273,0.0238,0.0189,0.0144,0.01,-0.0015,0.0008,-0.0071,-0.0134,-0.0139,-0.0179,-0.0217,-0.0227,-0.0214,-0.0213,-0.0212,-0.0211,-0.0211,0,0.0183,0.0226,0.0271,0.0281,0.0314,0.0335,0.035,0.0342,0.0354,0.0325,0.0315,0.0245,0.0207,0.0105,-0.0024,-0.0023,-0.0164,-0.0181,-0.0265,-0.0267,-0.0263,-0.0263,-0.0265,-0.0265,-0.0264,-0.0264,-0.0264,0,0.0216,0.0251,0.0289,0.0315,0.0366,0.0375,0.0416,0.0416,0.0414,0.0423,0.0361,0.0338,0.0203,0.0104,-0.0011,-0.0156,-0.0158,-0.0256,-0.029,-0.0231,-0.0226,-0.0267,-0.0266,-0.0267,-0.0267,-0.0266,-0.0265,0,0.0238,0.0264,0.0316,0.0362,0.0384,0.0419,0.0466,0.0483,0.0481,0.0489,0.0483,0.0401,0.0274,0.013,-0.0045,-0.0137,-0.0275,-0.0329,-0.025,-0.0278,-0.035,-0.0345,-0.0418,-0.0419,-0.042,-0.042,-0.0421,0,0.0251,0.0282,0.0349,0.0378,0.0403,0.0457,0.0489,0.0514,0.0531,0.0521,0.0521,0.0417,0.034,0.0094,-0.0062,-0.0279,-0.0313,-0.038,-0.0364,-0.0341,-0.0366,-0.0359,-0.0353,-0.0423,-0.0423,-0.0423,-0.0423,0,0.0266,0.029,0.0327,0.0392,0.0438,0.0493,0.054,0.0561,0.0584,0.0591,0.0544,0.0425,0.028,0.0095,-0.008,-0.0236,-0.0331,-0.0391,-0.039,-0.0374,-0.0348,-0.0371,-0.0363,-0.0427,-0.0426,-0.0426,-0.0426,0,0.026,0.028,0.0325,0.038,0.0444,0.0493,0.0531,0.0553,0.058,0.058,0.0561,0.0418,0.0344,0.0115,-0.0046,-0.0201,-0.0235,-0.0278,-0.0284,-0.0282,-0.022,-0.0165,-0.0214,0,0,0,0,0,0.0233,0.0245,0.0303,0.0355,0.0425,0.0462,0.0542,0.0575,0.061,0.0585,0.0579,0.0448,0.0222,0.0127,-0.003,-0.0082,-0.0278,-0.0271,-0.0334,-0.0445,-0.0441,-0.0392,0,0,0,0,0,0,0.0205,0.0244,0.0281,0.0326,0.0357,0.0428,0.048,0.0515,0.0511,0.0532,0.0418,0.0393,0.0172,0.0296,-0.0045,-0.0089,-0.0151,-0.0366,-0.0369,-0.0447,-0.0444,-0.044,-0.0389,0,0,0,0,0]}]]